Location: B�rgermoos
(47.6500°N, 9.0667°E)
Time: 18:03:35
(UTC+00:00)

A-11 Canister half - Pass Details

Date: 06 August 2021
Orbit: 1526 x 1683 km, 47.3° (Epoch: 20 September)

Event Time Altitude Azimuth Distance (km) Brightness Sun altitude
Rises 12:28:05 0° 271° (W) 4,936 11.8 56.7°
Reaches altitude 10° 12:31:15 10° 272° (W) 3,943 11.5 56.4°
Maximum altitude 12:41:26 88° 186° (S) 1,663 10.4 55.6°
Drops below altitude 10° 12:51:22 10° 97° (E) 3,847 11.0 54.6°
Sets 12:54:25 0° 97° (E) 4,812 11.4 54.3°
